Location: Gipe Farm
(40.9466°N, 95.5370°W)
Time: 01:53:30
(UTC-05:00)

Daily predictions for brighter satellites

Satellite Brightness Start Highest point End
(mag) Time Altitude Azimuth Time Altitude Azimuth Time Altitude Azimuth
COS B Rocket 4.0 00:06:58 10° NNE 00:09:45 42° NE 00:09:45 42° NE
H-2A R/B 3.5 00:12:25 23° SW 00:14:18 29° W 00:18:58 10° NW
Cosmos 1937 Rocket 4.1 00:15:06 31° SW 00:17:24 53° WNW 00:22:30 10° N
Cosmos 2237 Rocket 2.1 00:12:44 10° NNW 00:18:28 84° ENE 00:19:39 58° SSE
Cosmos 2082 3.6 00:18:01 53° SSW 00:19:26 85° ESE 00:25:11 10° NNE
ATLAS 2AS CENTAUR R/B 3.0 00:16:57 43° S 00:19:31 63° ESE 00:27:26 10° NE
Cosmos 1241 Rocket 4.3 00:17:36 46° SSW 00:19:33 81° ESE 00:25:50 10° NNE
ALOS 2 3.3 00:23:08 41° ENE 00:23:16 41° ENE 00:27:24 10° N
Cosmos 1869 Rocket 4.0 00:24:28 51° ENE 00:24:28 51° ENE 00:28:32 10° NNE
Cosmos 389 Rocket 4.3 00:21:50 10° NNE 00:24:12 25° NE 00:24:12 25° NE
Cosmos 192 4.1 00:23:04 10° NNW 00:28:00 89° ENE 00:28:21 78° SSE
Cosmos 1269 Rocket 4.2 00:24:16 10° NNW 00:29:31 59° ENE 00:30:21 53° ESE
Cosmos 2074 Rocket 4.2 00:41:14 48° SE 00:42:22 54° E 00:48:30 10° NNE
In-Cosmos 22 Rocket 4.4 00:43:30 51° ESE 00:44:02 53° E 00:49:36 10° NNE
Lacrosse 4 Rocket 2.4 00:41:24 10° NNW 00:45:35 41° ENE 00:45:57 40° ENE
ATLAS 3B R/B 2.9 00:38:49 10° NNW 00:45:48 64° NE 00:48:24 38° ESE
Cosmos 2221 Rocket 3.7 00:44:16 10° NNW 00:48:42 72° W 00:48:42 72° W
Cosmos 1709 Rocket 4.3 00:47:08 43° SW 00:48:57 59° W 00:55:00 10° N
CZ-4B R/B 2.7 00:51:18 42° N 00:51:18 42° N 00:53:47 10° N
Landsat 5 3.8 00:50:52 61° ENE 00:50:52 61° ENE 00:55:14 10° N
Cosmos 1626 4.3 00:53:56 18° W 00:54:14 18° WNW 00:56:56 10° NNW
Cosmos 1703 Rocket 4.0 00:52:41 10° NNW 00:56:37 52° WNW 00:56:37 52° WNW
Cosmos 2227 Rocket 3.0 00:54:43 30° WSW 00:57:03 46° WNW 01:02:31 10° NNE
H-2A R/B 2.6 00:53:45 10° NNE 00:57:31 72° N 00:57:31 72° N
Cosmos 1125 Rocket 3.5 00:59:16 63° WSW 00:59:59 73° WNW 01:05:20 10° NNE
Cosmos 2333 Rocket 3.0 00:55:30 10° NW 01:00:45 38° WSW 01:01:13 37° WSW
Cosmos 1048 Rocket 3.9 00:57:27 10° NNW 01:02:50 88° WSW 01:03:14 77° S
Okean 1-7 3.3 01:02:04 10° NNW 01:05:48 61° NW 01:05:48 61° NW
Cosmos 2181 Rocket 4.5 01:00:22 10° NNW 01:06:29 52° W 01:07:58 43° SW
Cosmos 1689 Rocket 4.1 01:10:13 31° NNW 01:10:13 31° NNW 01:12:07 10° NNW
SL-16 R/B 2.0 01:03:08 10° NNW 01:08:52 85° WSW 01:09:30 71° S
BREEZE-M DEB (TANK) 3.8 01:08:02 48° WSW 01:09:16 77° NNW 01:20:50 10° ENE
Meteor 1-26 Rocket 4.3 01:10:33 10° NNW 01:16:05 63° W 01:16:40 59° SW
Cosmos 1674 Rocket 4.5 01:13:18 10° N 01:17:23 39° ENE 01:17:23 39° ENE
Cosmos 2184 Rocket 3.9 01:17:58 60° SSW 01:19:11 82° W 01:25:25 10° N
SeaSat 1 4.0 01:21:10 23° W 01:21:10 23° W 01:24:32 10° NW
COSMOS 2455 2.7 01:14:53 10° NNW 01:20:54 73° WSW 01:21:35 66° SSW
NOSS 2-3 (C) 3.8 01:21:32 78° SE 01:21:33 78° ESE 01:27:11 10° NE
Cosmos 2297 Rocket 3.2 01:22:46 29° WSW 01:24:55 40° WNW 01:30:14 10° N
Cosmos 2341 Rocket 4.4 01:32:24 45° SE 01:33:45 53° E 01:39:57 10° NNE
Helios 1A Rocket 3.4 01:29:39 10° N 01:33:21 58° NW 01:33:21 58° NW
Cosmos 2219 Rocket 4.2 01:33:28 10° WNW 01:36:03 13° W 01:36:07 13° W
Cosmos 44 Rocket 3.3 01:37:34 83° SSE 01:37:40 84° ESE 01:42:56 10° NNE
CZ-2C R/B 3.6 01:36:35 46° ESE 01:37:59 59° ENE 01:43:35 10° N
Cosmos 921 Rocket 4.1 01:39:19 34° ENE 01:39:19 34° ENE 01:42:23 10° NNE
Cosmos 1606 4.1 01:38:19 10° N 01:41:25 33° ENE 01:41:25 33° ENE
CZ-2C R/B 2.4 01:36:41 10° NNE 01:41:58 87° ESE 01:42:21 78° S
Cosmos 1603 3.8 01:36:29 10° NNW 01:42:10 70° ENE 01:43:22 54° SE
MOS 1-B Rocket 3.8 01:41:28 64° S 01:42:21 79° WSW 01:47:59 10° NNW
ERBS 4.2 01:42:40 29° NNW 01:42:40 29° NNW 01:45:34 10° NNE
NOSS 2-3 (D) 3.9 01:42:07 67° WSW 01:42:39 75° NW 01:48:19 10° NNE
Sich 1 Rocket 3.9 01:43:04 57° ENE 01:43:04 57° ENE 01:47:11 10° NNE
Cosmos 372 Rocket 4.5 01:43:01 46° W 01:43:50 51° WNW 01:48:57 10° N
Meteor 1-10 Rocket 4.2 01:40:35 10° N 01:46:33 88° E 01:47:33 64° SSE
Meteor 2-3 Rocket 4.3 01:48:02 42° WSW 01:49:10 47° WNW 01:54:42 10° N
ASTEX 1 4.3 01:46:18 10° NNW 01:50:45 36° WNW 01:51:10 35° W
Cosmos 158 Rocket 4.0 01:45:33 10° NNW 01:50:49 63° WSW 01:50:50 63° WSW
Cosmos 2084 Rocket 4.4 01:53:22 37° ENE 01:53:22 37° ENE 01:55:50 10° NE
Meteor 2-10 Rocket 3.7 01:47:02 10° NNW 01:52:32 67° W 01:53:05 63° SW
Cosmos 962 Rocket 4.4 01:51:49 58° SSE 01:53:00 74° E 01:59:07 10° N
PSLV R/B 4.3 01:54:48 61° NE 01:54:48 61° NE 01:58:29 10° N
Cosmos 2251 Rocket 3.4 01:54:17 10° NNW 01:59:36 72° WSW 01:59:50 70° SW
Cosmos 1892 3.9 02:00:23 35° NW 02:00:23 35° NW 02:03:12 10° N
SL-8 Rocket 4.5 01:59:57 41° SE 02:01:38 51° E 02:07:45 10° NNE
Cosmos 2237 Rocket 4.3 01:59:20 10° WNW 02:01:28 13° W 02:01:28 13° W
Cosmos 1238 Rocket 3.2 01:59:58 10° N 02:03:42 60° NNE 02:03:42 60° NNE
Coronas F rocket 4.3 02:06:47 16° NNW 02:06:47 16° NNW 02:07:31 10° N
Cosmos 1782 3.5 02:01:32 10° NNW 02:04:38 49° NW 02:04:38 49° NW
Cosmos 1733 Rocket 3.8 02:06:48 43° WNW 02:06:48 43° WNW 02:10:55 10° N
ATLAS 2AS CENTAUR R/B 4.2 02:04:19 11° WSW 02:11:03 36° NW 02:18:27 10° NNE
BREEZE-M DEB (TANK) 4.3 01:57:36 10° WNW 02:11:56 80° NNE 02:16:07 10° ESE
Cosmos 1340 Rocket 4.1 02:13:30 30° WNW 02:13:30 30° WNW 02:16:33 10° N
ATLAS 2A CENTAUR R/B 4.4 02:19:13 21° SE 02:19:13 21° SE 02:26:52 10° ESE
Cosmos 1378 Rocket 3.5 02:17:03 10° N 02:21:16 80° NW 02:21:16 80° NW
Cosmos 2366 rocket 4.4 02:20:56 39° SE 02:22:51 53° E 02:28:49 10° NNE
Lacrosse 4 Rocket 3.6 02:20:47 10° WNW 02:22:17 16° WNW 02:22:17 16° WNW
Nadezhda 3 Rocket 4.3 02:20:50 10° NNW 02:26:46 49° W 02:27:57 43° WSW
Okean 2 Rocket 3.1 02:26:55 67° ESE 02:27:08 68° E 02:31:38 10° NNE
Meteor 2-13 Rocket 4.3 02:27:54 54° S 02:29:24 87° W 02:35:35 10° N
Okean 3 3.4 02:27:50 10° N 02:32:05 84° WNW 02:32:05 84° WNW
Cosmos 1825 2.5 02:33:05 63° NNW 02:33:05 63° NNW 02:36:22 10° N
CZ-4C R/B 3.0 02:26:31 10° NNW 02:33:39 77° NE 02:40:36 14° SE
ATLAS 3B R/B 3.8 02:30:33 10° WNW 02:35:37 25° WSW 02:35:37 25° WSW
USA 238 DEB 3.8 02:29:10 10° NW 02:36:01 56° WSW 02:37:40 46° SSW
USA 238 3.8 02:29:16 10° NW 02:36:07 56° WSW 02:37:48 46° SSW
ERS-2 4.0 02:33:40 10° NE 02:36:35 22° E 02:36:43 22° E
Cosmos 1782 Rocket 3.5 02:39:31 72° W 02:39:35 73° W 02:43:58 10° N
Cosmos 1727 Rocket 4.2 02:36:29 10° N 02:42:43 66° E 02:45:30 34° SSE
Meteor 1-27 Rocket 4.1 02:39:26 10° NNW 02:45:05 50° W 02:46:05 45° SW
Cosmos 1862 4.0 02:45:47 42° WNW 02:45:47 42° WNW 02:49:22 10° N
Cosmos 1408 3.2 02:46:26 48° NW 02:46:26 48° NW 02:49:41 10° N
Cosmos 864 Rocket 4.4 02:47:10 44° S 02:49:16 82° E 02:55:27 10° N
PSLV R/B 3.3 02:46:45 10° N 02:50:58 80° WNW 02:51:14 76° SW
Cosmos 1184 Rocket 3.4 02:51:54 55° NE 02:51:54 55° NE 02:54:48 10° NNE
Cosmos 2263 Rocket 2.2 02:50:00 50° S 02:51:30 76° ESE 02:57:12 10° NNE
SL-16 R/B 4.4 02:50:58 10° W 02:51:21 10° W 02:51:21 10° W
Iridium 4 Rocket 3.7 02:49:32 10° N 02:54:02 58° E 02:55:32 40° SE
H-2A R/B 4.2 02:56:59 26° SSE 02:56:59 26° SSE 03:09:34 10° SE
JB-3 4.1 02:53:30 10° N 02:57:23 83° WNW 02:57:25 83° W
Cosmos 44 4.1 02:55:39 36° WSW 02:57:24 50° NW 03:02:43 10° NNE
USA 234 3.1 02:51:25 10° SE 02:57:56 76° SW 03:04:30 10° NW
Abrixas rocket 4.2 03:01:03 21° E 03:01:03 21° E 03:02:39 10° E
Cosmos 1975 Rocket 3.6 02:59:05 10° NNW 03:03:15 43° W 03:03:15 43° W
NOSS 3-2 (C) 4.0 03:02:22 10° NW 03:09:56 90° WSW 03:18:03 10° SSE
Cosmos 1607 4.3 03:09:06 10° NW 03:14:47 41° WSW 03:15:48 38° SW
CENTAUR R/B 4.5 03:08:02 10° NNW 03:15:07 38° NE 03:22:38 10° ESE
Cosmos 1536 Rocket 3.6 03:10:46 10° N 03:15:08 77° E 03:16:31 43° SSE
Meteor 1-18 Rocket 4.3 03:13:31 10° N 03:19:09 74° E 03:22:39 24° SSE
Cosmos 1943 3.6 03:14:07 10° NW 03:19:29 44° WSW 03:20:39 39° SW
Cosmos 1190 Rocket 4.5 03:14:49 10° NNW 03:20:00 58° ENE 03:24:31 13° SE
SL-16 R/B 3.9 03:16:01 10° SE 03:21:41 38° ENE 03:27:20 10° N
Landsat 4 4.3 03:22:19 41° W 03:22:19 41° W 03:25:38 10° NNW
Cosmos 1371 Rocket 4.1 03:22:28 41° SW 03:24:21 73° WNW 03:29:44 10° NNE
Cosmos 2151 Rocket 3.6 03:24:17 49° SW 03:25:15 64° W 03:29:41 10° N
Cosmos 2056 Rocket 3.5 03:23:52 40° SSW 03:25:53 86° ESE 03:31:11 10° NNE
IRS-P3 4.3 03:22:53 10° N 03:28:11 63° WNW 03:30:16 36° SW
Spot 4 Rocket 4.5 03:24:19 10° NNE 03:29:23 55° E 03:32:06 26° SSE
NOSS 3-4 (A) 3.9 03:28:24 28° WSW 03:31:46 59° NW 03:38:18 10° NNE
NOSS 3-4 (C) 3.8 03:28:30 29° WSW 03:31:51 60° NW 03:38:24 10° NNE
OAO 2 Rocket 4.2 03:34:02 31° S 03:34:02 31° S 03:37:40 10° SE
NOSS 3-2 (A) 4.1 03:28:07 10° NW 03:35:28 56° WSW 03:42:41 12° SSE
SL-24 DEB 4.2 03:32:40 10° N 03:37:18 74° W 03:39:04 37° SSW
SL-08 R/B 3.5 03:35:46 36° SSW 03:37:37 59° W 03:42:29 10° NNW
Cosmos 407 Rocket 3.7 03:33:39 10° NNW 03:38:48 69° ENE 03:43:58 10° SSE
Okean O Rocket 4.2 03:39:23 10° ENE 03:41:13 12° E 03:43:01 10° ESE
Okean 1 Rocket 3.2 03:42:18 30° S 03:44:25 71° E 03:48:52 10° NNE
SL-27 R/B 3.4 03:41:56 10° N 03:45:29 50° ENE 03:48:43 12° SE
Resurs 1-4 Rocket 3.1 03:42:00 10° NNE 03:47:02 41° E 03:51:15 14° SSE
EO 1 Del DPAF 4.5 03:44:14 10° SE 03:47:54 41° ENE 03:51:36 10° N
Cosmos 1242 Rocket 3.4 03:45:22 10° NNW 03:48:22 31° W 03:48:22 31° W
Cosmos 1821 Rocket 4.1 03:45:48 21° S 03:50:17 79° E 03:56:43 10° N
IRS-1D 4.0 03:45:40 10° NNE 03:50:41 54° E 03:54:10 19° S
GP-B 3.1 03:46:21 10° N 03:50:48 69° W 03:52:45 32° SSW
Okean 1 3.2 03:46:55 10° N 03:50:55 86° W 03:52:52 29° S
Cosmos 1867 3.7 03:47:25 10° NW 03:52:42 50° WSW 03:56:28 18° S
RESURS DK-1 3.1 03:51:35 30° WSW 03:53:04 42° WNW 03:57:03 10° NNE
Cosmos 909 Rocket 4.4 03:53:20 25° SW 03:57:13 65° NW 04:04:34 10° NNE
Meteor 1-20 Rocket 4.3 03:54:04 26° SSW 03:57:24 69° W 04:03:13 10° N
Tiangong 1 0.8 03:56:53 33° W 03:58:06 77° SSW 04:01:09 10° ESE
AQUA 4.5 03:55:05 10° N 03:59:33 41° WNW 04:01:43 26° WSW
UNK 4.3 03:55:28 10° SSE 03:59:58 59° ENE 04:04:33 10° N
Cosmos 1812 2.9 03:57:05 10° NNW 04:00:54 53° W 04:02:23 32° SSW
Cosmos 1633 4.2 04:01:29 11° SSE 04:04:29 30° E 04:07:42 10° NNE
SME Rocket 3.6 04:01:55 10° SSE 04:05:35 52° ENE 04:09:26 10° N
ERS-2 3.7 04:07:18 10° NNW 04:10:19 24° WNW 04:11:34 20° W
Cosmos 1954 Rocket 4.1 04:07:16 10° NNW 04:12:28 79° ENE 04:17:37 10° SSE
BREEZE-M DEB (TANK) 4.1 04:12:58 12° SSE 04:13:40 13° SE 04:15:04 10° ESE
ADEOS 4.1 04:12:48 10° N 04:17:47 45° WNW 04:21:02 20° SW
Meteor 2-14 Rocket 4.4 04:13:32 15° S 04:18:39 89° W 04:24:45 10° N
Meteor 2-21 Rocket 4.4 04:15:30 17° SSW 04:20:16 75° W 04:26:23 10° N
CZ-4C R/B 3.9 04:16:09 10° WNW 04:21:47 24° WSW 04:25:37 17° SSW
NOSS 2-2 (E) 4.1 04:19:17 18° S 04:22:08 51° ESE 04:26:46 10° NE
Cosmos 1025 Rocket 3.0 04:20:40 10° N 04:24:59 82° E 04:29:17 10° S
BREEZE-M TANK 1.7 04:23:56 10° WNW 04:26:28 53° SSW 04:29:39 10° SE
USA 161 2.8 04:28:06 22° WSW 04:28:18 22° W 04:30:35 10° NW
COSMOS 2487 3.7 04:24:52 10° N 04:28:22 44° ENE 04:31:50 10° SE
OTV 4 1.2 04:28:38 27° SW 04:29:20 30° SSW 04:31:58 10° SE
ARIANE 5 R/B 2.7 04:25:10 10° N 04:30:03 57° WNW 04:33:51 17° SSW
Meteor 2-15 4.4 04:24:04 10° N 04:30:14 79° W 04:36:22 10° S
USA 129 3.4 04:29:44 10° SE 04:31:43 33° ENE 04:33:42 10° N
CZ-2D R/B 2.2 04:26:46 10° N 04:32:13 78° WNW 04:37:10 13° SSW
Cosmos 1452 Rocket 3.7 04:28:28 18° SW 04:32:15 57° WNW 04:37:27 10° NNE
Cosmos 1844 3.8 04:27:35 15° SSW 04:32:20 82° ESE 04:38:06 10° NNE
Cosmos 1844 Rocket 2.8 04:29:44 17° SSW 04:34:11 72° WNW 04:39:52 10° NNE
COSMOS 2406 3.6 04:29:43 10° NW 04:35:09 43° WSW 04:40:32 10° S
Cosmos 2263 Rocket 4.1 04:32:14 10° W 04:36:03 18° NW 04:39:53 10° N
Abrixas rocket 3.1 04:34:00 14° W 04:36:42 46° NNW 04:39:57 10° NE
Cosmos 1544 Rocket 3.8 04:33:14 10° S 04:37:39 72° E 04:42:04 10° NNE
MTI 3.8 04:37:35 10° S 04:40:52 67° WSW 04:44:11 10° NNW
USA 234 4.5 04:38:24 13° SSW 04:41:35 18° WSW 04:45:47 10° W
Cosmos 1602 4.3 04:41:11 16° SW 04:43:55 42° WNW 04:47:36 10° N
Cosmos 1420 Rocket 4.0 04:41:24 12° SSW 04:46:20 83° WNW 04:51:41 10° NNE
Cosmos 1536 3.0 04:43:07 13° SSW 04:46:39 59° W 04:50:41 10° N
Cosmos 2278 Rocket 2.4 04:42:26 10° SSW 04:48:04 74° ESE 04:53:46 10° NNE
BREEZE-M DEB (TANK) 4.4 04:50:14 10° WNW 04:54:52 23° NNW 04:57:11 10° NE
Cosmos 1023 Rocket 4.5 04:52:39 10° NNW 04:57:41 61° WSW 05:02:40 10° S
Cosmos 1892 Rocket 3.6 04:54:16 10° NNW 04:58:35 63° W 05:02:51 10° S
CZ-2C R/B 3.8 04:54:30 10° SSE 04:59:14 83° W 05:04:02 10° NNW
Okean-O 4.4 04:57:01 10° NE 05:00:56 30° E 05:04:51 10° SSE
UNKNOWN OBJECT B 3.4 04:57:52 10° N 05:01:46 44° WNW 05:05:39 10° SW
Meteor 2-4 Rocket 3.7 04:56:33 10° NNW 05:01:55 63° W 05:07:11 10° S
CZ-4B R/B 3.5 04:56:56 10° NNE 05:02:38 74° ESE 05:08:17 10° S
Cosmos 1447 Rocket 4.5 04:56:55 10° NNW 05:03:03 71° W 05:09:09 10° S
PSLV R/B 3.9 04:59:07 10° N 05:03:19 83° WNW 05:07:26 10° SSW
ATLAS 5 CENTAUR R/B 3.1 04:58:07 10° NNW 05:04:01 60° NE 05:10:20 10° SE
SL-16 R/B 3.2 04:59:38 10° SSW 05:05:16 35° W 05:10:55 10° NNW
CENTAUR R/B 3.1 04:58:33 10° NW 05:06:19 63° WSW 05:14:28 10° SSE
Cosmos 2082 Rocket 3.7 05:01:14 10° NNW 05:06:41 43° ENE 05:12:05 10° SE
Gbstr 26 Del rocket 2.7 05:03:17 10° WSW 05:07:08 72° NW 05:10:52 10° NE
Cosmos 1741 Rocket 4.1 05:10:44 10° NNW 05:15:56 58° WSW 05:21:03 10° S
Cosmos 1850 Rocket 4.1 05:10:51 10° NNW 05:15:57 55° WSW 05:21:04 10° S
Cosmos 1140 Rocket 3.9 05:11:54 10° NW 05:16:42 40° WSW 05:21:26 10° S
Okean O Rocket 1.8 05:13:40 10° N 05:17:57 57° WNW 05:22:12 10° SSW
